Tracking 22879 objects as of 22-Apr-2021
HD Live streaming from Space Station
objects crossing your sky now

SL-8 DEB

Track SL-8 DEB now!
10-day predictions


NORAD ID: 21958
Int'l Code: 1991-009CG
Perigee: 1,507.2 km
Apogee: 1,720.7 km
Inclination: 74.0 °
Period: 118.3 minutes
Semi major axis: 7984 km
RCS: 0.0969 m2 (small)
Launch date: February 12, 1991
Source: Commonwealth of Independent States (former USSR) (CIS)
Launch site: PLESETSK MISSILE AND SPACE COMPLEX (PKMTR)

Note: This is SATELLITE DEBRIS
aabbcc
Your satellite tracking list
Your tracking list is empty




NASA's NSSDC Master Catalog

Two Line Element Set (TLE):
1 21958U 91009CG  21111.82960628 -.00000083  00000-0 -66254-3 0  9990
2 21958  73.9666  55.5112 0133749 277.8469 108.8828 12.16731045337821
Source of the keplerian elements: AFSPC